Wind_Speed
18 16 16 16 19 21 21 5 1 3 7 1 2 3 4 3 4 6 5 4 6 5 3 3 3 5 5 7 6 1 4 2 3 8 4 5 5 6 5 3 7 3 4 4
20 16 15 13 14 17 20 9 5 1 5 2 2 2 4 6 5 5 5 5 7 3 4 1 5 5 4 5 4 4 2 1 4 9 5 3 2 4 4 2 2 5 2 5
22 18 15 13 11 11 12 4 2 3 0 3 5 1 4 4 9 5 7 5 6 1 4 7 6 4 4 8 9 11 6 4 7 7 8 4 2 4 5 5 2 2 5 8
23 20 17 15 13 7 8 3 3 2 3 3 3 4 3 4 4 8 11 3 8 7 4 3 8 10 4 6 12 5 7 5 7 13 11 8 12 7 7 7 5 6 5 5
23 21 19 16 14 8 9 5 3 4 6 6 2 5 6 8 5 7 6 9 8 12 10 11 9 6 6 8 2 4 2 4 3 6 9 12 13 9 9 4 3 6 3 8
24 23 21 19 15 10 9 11 15 9 7 4 4 5 7 9 8 12 17 12 11 12 20 25 25 22 16 11 8 7 6 4 1 7 2 4 9 10 10 4 3 7 5 7
25 25 22 21 17 17 19 17 17 8 5 8 8 8 11 13 16 16 11 20 13 7 10 12 18 25 25 18 15 15 6 5 4 4 3 2 6 2 4 5 5 6 2 3
28 27 26 23 21 20 24 26 26 10 6 13 15 17 16 23 26 20 21 24 22 12 2 3 5 3 3 4 5 6 7 5 2 2 4 6 5 5 6 7 7 6 5 3
34 32 29 26 24 24 26 29 30 25 6 9 24 10 16 10 6 3 10 13 13 11 3 3 4 4 4 3 2 4 5 3 4 2 3 6 5 3 4 4 4 5 6 2
38 36 32 30 27 26 28 35 31 32 14 26 26 11 9 9 4 2 3 6 6 12 5 5 5 4 4 4 7 6 4 2 11 9 7 7 5 6 6 4 5 9 7 4
35 34 32 31 31 30 30 37 37 38 21 34 29 27 18 8 8 5 7 4 5 4 5 4 4 4 5 2 4 6 8 7 4 2 4 10 13 7 6 4 7 8 5 2
34 34 33 29 28 31 29 38 35 33 36 23 23 27 36 37 35 17 17 8 8 10 5 5 3 4 2 3 3 1 3 5 4 7 4 3 12 4 10 10 8 5 1 2
31 30 30 30 28 26 30 35 33 28 23 29 33 21 26 28 28 30 11 11 12 9 11 3 3 4 2 4 4 3 3 3 2 2 2 5 13 10 10 8 6 3 1 3
31 30 29 28 28 27 26 33 33 29 11 4 7 14 13 17 20 21 24 16 13 12 17 4 3 3 4 2 1 3 1 8 5 1 3 9 8 12 13 11 7 5 4 5
28 28 27 27 27 26 26 29 33 32 27 3 3 7 9 10 11 14 17 17 11 7 3 3 2 2 3 2 0 3 6 5 5 4 8 5 7 11 10 8 5 5 6 8
25 24 24 24 23 21 21 19 29 32 37 7 2 4 3 4 7 10 10 10 9 5 4 2 3 2 1 3 3 2 6 7 8 8 11 11 10 8 7 6 6 6 6 8
22 21 22 22 20 20 22 11 6 7 14 5 2 2 4 5 4 4 4 5 5 4 4 2 3 1 1 1 3 10 13 10 8 7 8 5 9 5 5 6 7 8 7 7
23 22 21 23 21 24 27 26 28 12 14 7 2 1 3 7 3 2 3 3 3 5 3 3 2 2 1 3 6 16 13 10 7 5 4 6 6 5 6 7 8 7 7 7
23 22 23 19 17 14 14 20 14 20 8 5 4 5 3 6 3 3 3 3 2 2 2 2 0 0 4 0 13 16 13 8 7 7 4 5 4 4 5 5 6 8 8 7
16 17 11 6 3 7 18 11 12 10 4 1 2 4 3 3 3 2 2 2 2 1 2 1 2 3 2 5 13 12 10 8 7 6 5 6 5 5 6 7 7 8 10 10
19 8 6 8 18 7 4 4 3 2 1 2 3 3 3 3 2 2 2 2 1 1 2 2 2 3 3 12 13 11 9 7 5 4 3 5 7 8 10 10 10 11 11 12
12 9 15 13 6 2 3 2 1 2 4 3 3 3 5 5 4 3 1 2 2 1 3 2 2 3 6 14 15 12 9 6 4 4 6 8 9 10 12 13 13 13 13 11
13 6 8 7 4 3 7 8 3 2 4 8 7 4 5 4 4 4 2 2 1 1 2 3 4 2 10 14 14 12 9 7 7 8 10 10 9 9 10 12 12 14 14 10
8 9 6 6 5 3 2 2 3 5 12 18 16 6 3 3 3 1 3 1 2 2 1 4 3 8 12 15 13 10 6 8 10 11 11 10 10 10 10 12 13 14 11 8
6 4 3 3 5 7 7 10 9 12 21 18 10 7 5 2 3 2 4 2 2 5 4 3 3 5 13 15 12 7 8 9 9 9 9 9 10 10 11 10 11 10 9 6
5 7 3 5 4 1 5 13 14 17 18 11 7 3 3 2 3 3 4 5 5 3 3 5 7 7 11 12 9 10 8 7 8 8 8 9 8 9 11 10 6 6 5 3
6 3 11 8 11 7 5 13 10 19 3 2 2 3 2 3 2 0 3 4 3 6 9 7 4 4 7 7 6 6 6 7 8 8 9 9 7 10 9 5 2 4 4 4
Wind_Direction
329 325 329 343 349 349 1 4 37 155 344 178 119 155 193 220 243 203 215 226 224 219 258 275 258 243 184 165 158 131 222 222 278 250 252 160 150 181 138 132 290 253 268 261
324 316 317 327 345 348 359 348 301 223 327 159 291 250 246 212 211 207 193 237 209 191 199 283 233 249 192 161 130 163 277 255 329 329 351 342 180 229 166 136 135 230 257 278
322 311 302 302 322 337 350 335 340 282 133 151 146 193 247 231 220 225 191 230 213 157 239 208 260 244 252 196 194 269 194 193 187 223 229 161 242 213 193 150 157 232 240 300
316 311 297 292 294 310 337 262 235 205 276 245 173 158 244 224 243 215 193 270 203 173 235 243 233 246 265 242 274 134 159 226 219 252 258 254 260 201 187 192 207 174 240 255
308 305 296 283 280 280 281 257 218 224 259 264 222 197 211 206 219 171 226 220 207 207 215 200 221 217 259 245 11 143 200 251 170 264 264 269 260 205 187 204 205 266 275 286
303 299 293 281 272 243 245 233 237 231 215 190 177 211 222 216 182 235 226 213 225 225 236 242 249 254 243 217 163 188 195 201 107 271 348 355 285 227 179 191 206 159 189 229
302 296 290 280 263 236 247 257 253 204 239 210 212 220 221 234 202 239 233 228 229 236 253 277 277 268 256 231 230 217 213 165 173 265 31 251 249 261 151 174 217 208 274 261
303 298 290 280 259 241 244 253 256 244 251 230 246 243 248 255 256 250 244 239 228 234 316 319 297 289 332 256 201 181 179 159 231 233 198 285 303 198 168 168 262 200 183 267
292 292 290 276 270 248 241 249 260 247 264 237 244 260 236 242 237 228 233 246 218 182 157 192 231 237 217 223 100 121 147 105 181 105 192 251 234 255 131 109 282 184 152 199
289 287 284 280 266 252 245 251 254 248 247 259 242 236 243 191 195 224 145 166 169 181 178 214 220 237 198 206 176 173 169 196 219 228 247 269 199 179 140 100 234 166 166 174
288 288 287 283 273 261 244 253 252 241 259 259 252 249 229 214 195 194 152 119 191 165 202 220 215 231 219 161 167 176 173 180 190 184 220 262 150 122 164 172 134 147 143 133
287 287 286 284 284 272 258 255 258 268 249 266 281 259 247 246 249 222 183 199 160 183 191 204 225 224 208 182 228 272 232 203 194 187 212 205 171 148 145 148 143 130 128 346
289 286 283 283 280 276 266 262 259 271 244 261 259 252 241 238 245 242 221 215 208 199 191 169 195 226 164 193 227 148 218 169 184 73 152 157 144 143 156 163 156 150 166 291
287 286 285 281 278 276 270 256 258 252 243 252 248 243 233 233 234 233 227 232 201 208 202 185 188 189 181 198 109 215 143 148 169 165 124 149 178 168 158 153 164 194 246 290
290 287 285 283 280 272 273 263 259 256 228 258 237 229 241 234 229 229 233 233 211 183 172 205 192 90 131 71 73 214 188 178 182 221 150 135 133 154 168 187 217 251 283 290
295 291 285 282 280 272 269 260 258 252 245 244 222 209 147 219 224 216 197 181 171 155 128 117 93 98 152 201 221 157 157 142 152 156 154 125 142 174 189 218 254 276 280 293
293 292 287 281 274 249 229 223 228 204 211 195 178 187 172 168 177 144 99 120 95 105 105 79 112 134 31 244 244 133 145 141 144 157 169 161 173 177 224 259 277 277 277 271
284 284 278 273 256 244 230 234 243 221 182 182 223 92 173 174 143 95 104 98 91 52 97 88 99 122 48 251 117 133 138 146 161 172 183 170 184 229 260 276 281 284 289 288
293 288 278 260 232 214 212 204 184 178 186 184 180 171 190 140 101 99 72 84 77 46 73 72 19 110 226 240 160 165 170 186 179 189 225 228 224 240 269 281 287 288 292 292
278 252 240 234 185 153 147 139 175 200 215 140 105 109 120 111 117 75 103 50 120 95 265 44 87 259 159 162 187 187 184 189 183 178 188 209 241 270 278 286 298 302 298 298
251 243 209 153 146 152 158 106 138 158 3 109 103 98 128 98 124 119 39 120 145 101 273 114 291 274 229 184 176 179 184 187 193 206 241 268 279 289 292 292 293 296 296 292
226 210 147 152 189 190 126 154 28 201 212 114 111 106 108 101 98 100 63 94 62 208 151 77 274 248 186 185 188 189 191 199 235 277 288 289 287 287 294 299 300 297 294 289
227 193 145 157 167 192 188 192 240 177 160 155 146 117 107 102 91 78 112 106 146 87 52 236 227 195 180 184 191 196 207 234 268 286 293 294 286 280 288 296 300 297 294 289
217 162 184 210 179 234 165 157 133 108 129 127 117 97 92 108 78 115 105 62 106 63 318 239 251 215 192 190 197 205 235 266 276 282 287 291 290 285 289 299 299 298 295 289
222 241 203 83 102 65 87 94 95 111 131 125 107 84 91 77 102 51 115 70 232 205 230 228 218 193 192 196 201 238 274 276 273 276 279 289 289 289 296 300 295 289 292 296
97 52 81 127 96 91 71 96 107 132 129 105 83 104 96 94 119 121 203 136 217 236 211 180 171 180 198 209 248 277 280 274 274 273 280 294 290 292 303 308 290 268 271 311
67 45 64 72 79 88 108 129 126 140 91 96 125 113 116 107 70 212 191 202 216 181 163 165 185 220 232 253 266 277 279 279 278 275 283 291 285 297 308 312 312 261 246 258
Height
1510 1507 1504 1502 1499 1495 1492 1489 1489 1488 1487 1489 1488 1495 1491 1490 1488 1489 1490 1490 1490 1491 1489 1492 1487 1483 1475 1475 1476 1481 1479 1482 1482 1472 1470 1468 1476 1482 1493 1491 1493 1484 1458 1445
1506 1504 1502 1500 1498 1495 1492 1490 1488 1487 1486 1491 1490 1488 1487 1486 1487 1486 1486 1486 1484 1483 1487 1497 1482 1477 1470 1470 1473 1480 1478 1487 1488 1476 1476 1469 1472 1479 1480 1489 1490 1492 1467 1448
1503 1500 1499 1498 1497 1495 1493 1491 1490 1485 1483 1484 1486 1489 1485 1483 1480 1480 1480 1480 1481 1483 1485 1482 1480 1476 1468 1467 1467 1468 1470 1474 1479 1481 1472 1479 1478 1476 1471 1475 1483 1481 1470 1454
1498 1496 1495 1494 1493 1493 1493 1491 1487 1484 1485 1481 1482 1484 1481 1479 1480 1477 1476 1476 1475 1479 1489 1478 1472 1466 1467 1463 1462 1464 1467 1473 1469 1458 1457 1457 1455 1461 1468 1466 1475 1474 1466 1462
1493 1491 1489 1489 1489 1489 1489 1488 1485 1483 1479 1478 1479 1479 1474 1472 1470 1472 1471 1470 1465 1468 1472 1466 1469 1461 1461 1460 1460 1464 1465 1465 1468 1465 1454 1448 1446 1447 1457 1465 1467 1466 1471 1461
1486 1484 1483 1482 1483 1484 1482 1480 1479 1477 1472 1472 1475 1470 1463 1459 1461 1459 1455 1456 1460 1459 1453 1452 1451 1451 1449 1450 1453 1457 1457 1458 1468 1449 1464 1458 1447 1437 1450 1461 1471 1461 1463 1450
1478 1476 1475 1475 1476 1477 1476 1474 1473 1471 1462 1463 1459 1456 1455 1453 1453 1451 1448 1451 1453 1447 1447 1447 1445 1442 1438 1439 1439 1444 1447 1456 1459 1464 1472 1468 1440 1444 1443 1448 1454 1454 1450 1447
1471 1468 1466 1466 1466 1468 1467 1466 1466 1462 1451 1451 1448 1447 1444 1443 1442 1442 1439 1437 1438 1441 1444 1446 1442 1439 1434 1429 1432 1437 1438 1447 1454 1459 1477 1447 1445 1439 1446 1446 1443 1444 1446 1444
1461 1459 1457 1455 1455 1457 1457 1456 1456 1452 1445 1436 1437 1437 1435 1433 1433 1433 1430 1431 1432 1436 1440 1443 1448 1438 1428 1429 1433 1436 1438 1442 1446 1472 1469 1456 1438 1439 1437 1438 1442 1437 1439 1441
1449 1447 1446 1445 1445 1446 1447 1444 1444 1441 1433 1424 1430 1428 1426 1426 1426 1425 1427 1429 1432 1433 1435 1435 1432 1429 1415 1422 1430 1433 1438 1445 1438 1438 1435 1428 1436 1434 1436 1447 1439 1435 1436 1438
1438 1436 1435 1435 1434 1434 1436 1431 1433 1432 1423 1415 1416 1417 1418 1417 1416 1416 1419 1426 1426 1429 1430 1427 1420 1416 1415 1419 1415 1424 1424 1429 1434 1442 1441 1421 1427 1435 1440 1434 1433 1435 1436 1436
1427 1425 1424 1423 1423 1423 1424 1420 1423 1422 1418 1405 1402 1404 1404 1404 1404 1405 1407 1405 1409 1411 1416 1416 1414 1412 1414 1410 1411 1417 1419 1412 1415 1416 1417 1422 1422 1423 1426 1429 1431 1433 1434 1434
1416 1415 1413 1413 1412 1412 1413 1410 1413 1412 1405 1398 1394 1392 1394 1395 1395 1396 1398 1397 1398 1399 1400 1402 1404 1405 1403 1403 1402 1409 1414 1415 1418 1419 1421 1421 1422 1423 1425 1427 1429 1431 1431 1431
1406 1404 1403 1402 1401 1401 1402 1400 1400 1402 1398 1393 1385 1385 1386 1386 1387 1387 1388 1389 1391 1392 1394 1395 1396 1398 1399 1400 1402 1405 1408 1412 1414 1418 1419 1422 1422 1422 1424 1426 1427 1427 1428 1428
1395 1394 1393 1392 1392 1391 1391 1389 1389 1392 1394 1384 1383 1382 1382 1382 1382 1383 1384 1386 1387 1388 1391 1391 1392 1395 1398 1403 1405 1402 1402 1402 1406 1403 1410 1413 1419 1421 1422 1424 1424 1425 1425 1425
1385 1384 1383 1382 1382 1382 1382 1379 1377 1380 1382 1381 1382 1381 1379 1380 1380 1380 1379 1381 1383 1385 1387 1392 1395 1396 1398 1398 1399 1399 1399 1400 1401 1405 1410 1413 1416 1419 1420 1421 1422 1422 1422 1421
1377 1375 1373 1372 1373 1372 1372 1369 1368 1369 1374 1376 1378 1377 1379 1379 1380 1380 1380 1381 1383 1385 1388 1392 1395 1397 1398 1397 1391 1397 1401 1402 1404 1407 1410 1413 1415 1416 1418 1418 1419 1418 1418 1418
1368 1366 1364 1361 1361 1362 1360 1359 1360 1363 1367 1371 1371 1376 1380 1379 1379 1381 1381 1383 1384 1388 1391 1394 1395 1398 1398 1396 1398 1400 1402 1403 1406 1407 1409 1410 1412 1414 1415 1415 1415 1415 1415 1414
1360 1357 1355 1353 1350 1349 1349 1352 1356 1358 1364 1362 1363 1365 1369 1376 1379 1380 1383 1383 1388 1392 1394 1396 1398 1401 1398 1394 1397 1399 1402 1404 1405 1407 1409 1410 1411 1411 1412 1412 1412 1412 1411 1410
1352 1353 1352 1347 1345 1345 1348 1352 1355 1356 1356 1356 1360 1364 1370 1375 1377 1382 1385 1385 1391 1398 1401 1399 1403 1399 1395 1394 1396 1399 1401 1403 1405 1407 1409 1410 1409 1409 1409 1409 1409 1408 1407 1406
1348 1344 1342 1344 1347 1348 1348 1351 1354 1355 1357 1357 1362 1364 1369 1375 1376 1382 1386 1387 1391 1398 1402 1402 1407 1398 1394 1393 1395 1397 1400 1401 1404 1406 1407 1408 1408 1407 1407 1406 1405 1404 1404 1403
1337 1337 1338 1343 1346 1347 1348 1352 1355 1355 1353 1360 1363 1367 1368 1373 1376 1381 1388 1388 1393 1398 1400 1404 1403 1390 1390 1391 1394 1396 1398 1400 1402 1404 1405 1405 1404 1404 1403 1402 1401 1400 1399 1399
1333 1331 1332 1335 1341 1344 1345 1348 1351 1354 1352 1357 1361 1367 1370 1374 1378 1383 1386 1389 1398 1399 1407 1400 1393 1388 1389 1391 1393 1395 1396 1398 1400 1401 1402 1402 1401 1401 1400 1399 1398 1396 1394 1395
1324 1324 1329 1326 1329 1333 1334 1336 1338 1343 1347 1352 1358 1365 1371 1375 1379 1384 1386 1398 1397 1408 1409 1402 1391 1385 1387 1389 1392 1394 1395 1396 1397 1398 1398 1398 1398 1397 1396 1395 1393 1392 1391 1391
1317 1316 1314 1327 1336 1338 1338 1337 1340 1345 1349 1352 1358 1365 1371 1377 1382 1385 1393 1400 1405 1400 1394 1391 1384 1385 1386 1388 1390 1392 1393 1393 1394 1395 1395 1395 1394 1393 1392 1392 1390 1389 1388 1388
1315 1323 1330 1333 1335 1339 1339 1341 1344 1347 1351 1355 1357 1365 1372 1379 1380 1387 1390 1392 1395 1386 1384 1382 1383 1385 1387 1388 1389 1389 1389 1390 1391 1391 1391 1391 1390 1389 1389 1388 1387 1387 1387 1387
1322 1331 1331 1331 1332 1336 1340 1342 1345 1349 1354 1356 1358 1362 1371 1381 1385 1387 1385 1387 1381 1378 1380 1381 1384 1385 1386 1386 1386 1386 1386 1387 1388 1388 1388 1387 1387 1386 1385 1385 1385 1385 1385 1385